| time (UTC) | temp C | wind direction | speed KPH | gust KPH | rain 1hr cm | rain 24hr cm | rain mn cm | humidity % | barometer mb |
| 20260505184542 | 26 | 158 | 4.8 | 17.7 | 0.00 | 0.00 | 0.00 | 64 | 1015.3 |
| 20260505183037 | 26 | 115 | 4.8 | 17.7 | 0.00 | 0.00 | 0.00 | 65 | 1015.5 |
| 20260505181530 | 26 | 193 | 6.4 | 14.5 | 0.00 | 0.00 | 0.00 | 62 | 1015.6 |
| 20260505180032 | 26 | 207 | 3.2 | 16.1 | 0.00 | 0.00 | 0.00 | 65 | 1015.6 |
| 20260505174529 | 25 | 142 | 8.0 | 17.7 | 0.00 | 0.00 | 0.00 | 64 | 1015.5 |
| 20260505173029 | 26 | 188 | 4.8 | 17.7 | 0.00 | 0.00 | 0.00 | 62 | 1015.5 |
| 20260505171528 | 26 | 203 | 1.6 | 17.7 | 0.00 | 0.00 | 0.00 | 63 | 1015.3 |
| 20260505170035 | 25 | 152 | 4.8 | 17.7 | 0.00 | 0.00 | 0.00 | 66 | 1015.4 |
| 20260505164534 | 25 | 215 | 4.8 | 11.3 | 0.00 | 0.00 | 0.00 | 66 | 1015.6 |
| 20260505163028 | 25 | 136 | 6.4 | 16.1 | 0.00 | 0.00 | 0.00 | 64 | 1015.6 |
| 20260505161530 | 25 | 171 | 6.4 | 14.5 | 0.00 | 0.00 | 0.00 | 63 | 1016.0 |
| 20260505153028 | 24 | 151 | 4.8 | 12.9 | 0.00 | 0.00 | 0.00 | 66 | 1015.9 |
| 20260505151535 | 23 | 161 | 6.4 | 14.5 | 0.00 | 0.00 | 0.00 | 66 | 1015.8 |
| 20260505124528 | 16 | 0 | 0.0 | 1.6 | 0.00 | 0.00 | 0.00 | 83 | 1015.4 |
| 20260505123030 | 15 | 170 | 0.0 | 0.0 | 0.00 | 0.00 | 0.00 | 87 | 1015.2 |
| 20260505121536 | 13 | 184 | 0.0 | 0.0 | 0.00 | 0.00 | 0.00 | 90 | 1015.3 |
| 20260505120029 | 12 | 0 | 0.0 | 0.0 | 0.00 | 0.00 | 0.00 | 91 | 1015.3 |
| 20260505114528 | 12 | 0 | 0.0 | 0.0 | 0.00 | 0.00 | 0.00 | 91 | 1015.0 |
| 20260505113039 | 11 | 0 | 0.0 | 0.0 | 0.00 | 0.00 | 0.00 | 91 | 1014.9 |
| 20260505111540 | 11 | 0 | 0.0 | 0.0 | 0.00 | 0.00 | 0.00 | 92 | 1014.9 |
| 20260505094528 | 11 | 0 | 0.0 | 0.0 | 0.00 | 0.00 | 0.00 | 92 | 1014.6 |
| 20260505093039 | 11 | 0 | 0.0 | 0.0 | 0.00 | 0.00 | 0.00 | 92 | 1014.6 |
| 20260505091530 | 11 | 0 | 0.0 | 0.0 | 0.00 | 0.00 | 0.00 | 92 | 1014.3 |
| 20260505090032 | 11 | 0 | 0.0 | 0.0 | 0.00 | 0.00 | 0.00 | 92 | 1014.2 |
| 20260505084530 | 11 | 0 | 0.0 | 0.0 | 0.00 | 0.00 | 0.00 | 91 | 1013.8 |
| 20260505083036 | 11 | 0 | 0.0 | 0.0 | 0.00 | 0.00 | 0.00 | 91 | 1013.8 |
| 20260505081530 | 11 | 0 | 0.0 | 0.0 | 0.00 | 0.00 | 0.00 | 91 | 1013.8 |
| 20260505080030 | 11 | 0 | 0.0 | 0.0 | 0.00 | 0.00 | 0.00 | 91 | 1013.8 |
| 20260505074529 | 11 | 0 | 0.0 | 0.0 | 0.00 | 0.00 | 0.00 | 91 | 1014.0 |
| 20260505073030 | 11 | 0 | 0.0 | 0.0 | 0.00 | 0.00 | 0.00 | 90 | 1013.9 |
| 20260505071529 | 12 | 0 | 0.0 | 0.0 | 0.00 | 0.00 | 0.00 | 90 | 1014.0 |
| 20260505070030 | 12 | 0 | 0.0 | 0.0 | 0.00 | 0.00 | 0.00 | 90 | 1014.3 |
| 20260505064527 | 12 | 0 | 0.0 | 0.0 | 0.00 | 0.00 | 0.00 | 90 | 1014.6 |
| 20260505063029 | 12 | 0 | 0.0 | 0.0 | 0.00 | 0.00 | 0.00 | 89 | 1015.0 |
| 20260505061529 | 12 | 0 | 0.0 | 0.0 | 0.00 | 0.00 | 0.00 | 89 | 1015.0 |
| 20260505060026 | 12 | 0 | 0.0 | 0.0 | 0.00 | 0.00 | 0.00 | 89 | 1015.3 |
| 20260505054541 | 12 | 0 | 0.0 | 0.0 | 0.00 | 0.00 | 0.00 | 89 | 1015.3 |
| 20260505053029 | 12 | 0 | 0.0 | 0.0 | 0.00 | 0.00 | 0.00 | 88 | 1015.6 |
| 20260505051528 | 12 | 0 | 0.0 | 0.0 | 0.00 | 0.00 | 0.00 | 89 | 1015.5 |
| 20260505041531 | 13 | 0 | 0.0 | 0.0 | 0.00 | 0.00 | 0.00 | 87 | 1015.8 |
| 20260505040040 | 13 | 0 | 0.0 | 0.0 | 0.00 | 0.00 | 0.00 | 86 | 1015.7 |
| 20260505034536 | 14 | 0 | 0.0 | 0.0 | 0.00 | 0.00 | 0.00 | 85 | 1015.6 |
| 20260505033030 | 14 | 0 | 0.0 | 0.0 | 0.00 | 0.00 | 0.00 | 85 | 1015.7 |
| 20260505031533 | 15 | 0 | 0.0 | 0.0 | 0.00 | 0.00 | 0.00 | 84 | 1015.8 |
| 20260505030028 | 15 | 0 | 0.0 | 0.0 | 0.00 | 0.00 | 0.00 | 83 | 1015.7 |
| 20260505024528 | 15 | 0 | 0.0 | 0.0 | 0.00 | 0.00 | 0.00 | 83 | 1015.5 |
| 20260505023031 | 15 | 0 | 0.0 | 0.0 | 0.00 | 0.00 | 0.00 | 81 | 1015.4 |
| 20260505021529 | 16 | 0 | 0.0 | 0.0 | 0.00 | 0.00 | 0.00 | 80 | 1015.5 |
| 20260505020037 | 16 | 0 | 0.0 | 0.0 | 0.00 | 0.00 | 0.00 | 79 | 1015.6 |
| 20260505014530 | 16 | 0 | 0.0 | 0.0 | 0.00 | 0.00 | 0.00 | 77 | 1015.6 |
| 20260505013030 | 16 | 0 | 0.0 | 0.0 | 0.00 | 0.00 | 0.00 | 75 | 1015.6 |
| 20260505011530 | 17 | 0 | 0.0 | 0.0 | 0.00 | 0.00 | 0.00 | 72 | 1015.8 |
| 20260505010027 | 18 | 0 | 0.0 | 0.0 | 0.00 | 0.00 | 0.00 | 70 | 1015.7 |
| 20260505004528 | 18 | 0 | 0.0 | 0.0 | 0.00 | 0.00 | 0.00 | 67 | 1015.7 |
| 20260505003027 | 20 | 0 | 0.0 | 3.2 | 0.00 | 0.00 | 0.00 | 63 | 1015.8 |
| 20260505001528 | 20 | 154 | 1.6 | 6.4 | 0.00 | 0.00 | 0.00 | 61 | 1015.8 |
| 20260505000042 | 21 | 160 | 1.6 | 8.0 | 0.00 | 0.00 | 0.00 | 59 | 1015.8 |
| 20260504234528 | 21 | 157 | 3.2 | 9.7 | 0.00 | 0.00 | 0.00 | 57 | 1016.0 |
| 20260504233030 | 21 | 198 | 1.6 | 12.9 | 0.00 | 0.00 | 0.00 | 57 | 1015.9 |
| 20260504231530 | 21 | 134 | 4.8 | 14.5 | 0.00 | 0.00 | 0.00 | 54 | 1015.7 |
| 20260504230028 | 22 | 169 | 4.8 | 14.5 | 0.00 | 0.00 | 0.00 | 53 | 1015.7 |
| 20260504224528 | 22 | 134 | 3.2 | 11.3 | 0.00 | 0.00 | 0.00 | 52 | 1016.0 |
| 20260504223028 | 22 | 175 | 4.8 | 14.5 | 0.00 | 0.00 | 0.00 | 49 | 1016.0 |
| 20260504221529 | 23 | 163 | 1.6 | 14.5 | 0.00 | 0.00 | 0.00 | 47 | 1016.0 |
| 20260504220042 | 23 | 289 | 3.2 | 12.9 | 0.00 | 0.00 | 0.00 | 45 | 1015.9 |
| 20260504214534 | 24 | 203 | 4.8 | 14.5 | 0.00 | 0.00 | 0.00 | 44 | 1016.0 |
| 20260504213031 | 24 | 150 | 3.2 | 14.5 | 0.00 | 0.00 | 0.00 | 44 | 1015.8 |
| 20260504211536 | 24 | 94 | 6.4 | 14.5 | 0.00 | 0.00 | 0.00 | 42 | 1016.0 |
| 20260504210030 | 24 | 203 | 4.8 | 17.7 | 0.00 | 0.00 | 0.00 | 42 | 1016.1 |
| 20260504204538 | 25 | 164 | 6.4 | 14.5 | 0.00 | 0.00 | 0.00 | 40 | 1016.1 |
| 20260504203028 | 25 | 134 | 1.6 | 17.7 | 0.00 | 0.00 | 0.00 | 42 | 1016.1 |
| 20260504201528 | 25 | 160 | 6.4 | 17.7 | 0.00 | 0.00 | 0.00 | 42 | 1016.2 |
| 20260504200030 | 26 | 173 | 3.2 | 12.9 | 0.00 | 0.00 | 0.00 | 39 | 1016.2 |
| 20260504194528 | 25 | 276 | 1.6 | 19.3 | 0.00 | 0.00 | 0.00 | 39 | 1016.4 |
| 20260504193030 | 26 | 215 | 8.0 | 16.1 | 0.00 | 0.00 | 0.00 | 36 | 1016.7 |
| 20260504191529 | 26 | 141 | 3.2 | 9.7 | 0.00 | 0.00 | 0.00 | 36 | 1016.7 |
| 20260504190030 | 26 | 162 | 3.2 | 9.7 | 0.00 | 0.00 | 0.00 | 37 | 1017.1 |